Vorticity
7 6 6 6 6 7 7 7 8 8 9 9 9 10 10 11 11 10 10 10 8 8 8 10 11 13 14 15 14 13 11 9 8 8 8 8 8 9 9 9 10 10 9 8 8 7 7 7 6 7 7 8 9 9 10 11 11 12 13 14 15 15 17 18 18 17 17 15 15 14 12 9 8 7 7 8 9 10 11 13 13 12 11 11 11
7 7 8 8 7 7 7 8 8 9 9 10 10 11 12 12 12 12 12 11 9 9 11 13 15 16 15 13 11 9 7 7 7 7 8 8 8 8 8 9 8 7 7 6 6 6 7 7 8 9 10 11 12 12 13 14 15 15 15 15 14 14 14 14 14 14 15 16 17 18 19 18 17 15 11 8 6 6 7 8 8 10 11 10 11
8 8 8 7 7 7 6 7 7 8 9 9 10 10 11 11 11 12 12 12 12 13 15 17 16 14 11 9 7 7 6 7 7 7 8 8 9 9 8 8 6 6 6 6 7 9 9 10 11 11 12 13 14 15 15 15 14 12 10 9 8 8 8 8 9 10 11 12 11 10 12 16 19 22 23 22 17 9 5 7 7 6 8 9 9
8 8 7 8 7 8 8 8 8 8 9 9 9 9 9 10 12 13 14 15 16 17 16 14 11 8 7 6 6 6 6 6 7 8 9 9 9 8 7 6 6 7 8 9 9 9 10 11 13 14 15 15 15 15 14 12 10 9 8 8 8 9 9 9 10 9 8 8 6 5 7 10 11 14 17 25 32 29 16 9 8 7 5 6 7
7 8 8 9 10 10 10 9 8 8 8 8 8 8 9 11 12 13 14 15 14 13 11 8 6 6 6 6 6 6 6 7 8 9 9 9 8 6 5 6 7 8 9 9 10 11 13 15 15 15 15 14 13 12 11 10 10 10 9 10 12 12 11 10 9 8 9 9 9 9 9 10 11 12 10 11 24 39 38 26 19 16 12 9 7
6 8 9 10 11 11 9 8 7 7 7 7 7 7 9 10 7 7 9 10 8 7 6 5 5 5 6 6 6 6 7 8 9 9 9 8 6 6 6 8 9 9 10 11 13 15 15 14 13 12 11 10 11 10 9 10 10 11 12 15 17 15 10 9 9 8 9 10 10 10 9 8 9 13 14 9 7 21 34 36 32 28 24 19 13
7 7 8 10 11 9 8 9 8 8 8 7 6 6 9 8 2 -1 2 5 5 5 5 5 5 5 6 6 7 7 8 9 10 9 7 6 6 8 9 10 9 9 11 13 13 13 11 10 9 9 9 9 9 9 9 9 9 11 13 16 19 18 14 14 14 12 11 11 9 9 9 9 9 9 14 16 11 9 15 23 28 29 30 28 23
9 8 9 10 10 9 10 11 11 10 9 9 7 6 8 9 5 1 2 4 5 5 5 5 5 5 6 7 7 8 9 10 9 8 7 7 8 10 10 10 9 10 11 10 9 8 7 6 6 6 7 7 7 8 8 8 9 9 8 10 11 12 13 16 18 19 19 19 17 14 10 9 11 11 11 15 18 14 10 12 17 21 25 28 27
11 9 10 11 10 10 12 12 11 9 8 9 9 8 8 8 7 4 4 5 6 6 6 6 6 5 6 7 8 8 9 9 8 8 7 8 10 10 10 10 9 9 8 8 8 7 7 8 8 8 8 8 8 8 9 9 9 9 9 8 8 7 7 8 11 13 15 19 21 21 18 14 12 13 13 12 15 17 13 12 13 15 18 23 26
10 10 12 12 12 12 11 11 11 9 9 9 9 9 8 7 7 7 7 8 8 8 7 7 6 6 6 7 8 9 9 9 9 8 8 9 11 11 10 8 7 6 7 8 9 10 10 10 9 8 8 7 7 7 7 7 8 8 8 8 8 8 8 7 7 7 8 10 14 19 22 19 14 14 14 11 12 14 12 10 11 13 15 17 19
11 11 11 12 13 12 11 11 11 9 8 7 8 8 8 8 9 9 9 9 8 8 7 7 6 6 7 7 8 9 9 9 9 8 9 11 11 10 8 6 6 6 8 10 10 10 10 8 7 6 6 6 7 7 8 8 9 9 9 9 9 9 9 8 8 7 7 7 8 12 18 21 18 16 14 13 14 18 18 16 16 17 17 17 16
10 10 10 10 11 11 10 10 10 9 6 6 8 9 8 9 9 8 8 8 7 8 7 6 6 6 7 7 8 9 10 9 8 8 10 12 11 9 7 5 5 7 9 10 10 9 8 7 6 6 7 8 9 10 10 11 11 11 12 12 12 11 11 11 10 9 8 8 8 9 13 18 19 17 15 15 15 17 20 21 20 18 18 18 17
7 9 11 9 9 10 9 9 9 8 6 6 7 7 8 10 9 8 8 7 7 7 6 6 7 6 7 8 9 10 10 8 7 9 11 11 10 8 6 4 5 8 9 9 9 9 8 8 8 8 8 9 9 10 11 11 11 10 10 10 10 10 10 10 11 12 11 10 9 10 11 14 17 16 14 14 14 13 12 12 12 12 15 18 18
6 10 10 8 7 8 8 8 8 7 7 7 6 6 7 8 8 8 8 7 7 6 6 6 6 7 8 9 9 10 9 7 8 10 10 10 10 8 5 4 6 8 9 9 9 8 8 9 9 9 8 8 9 9 9 9 8 8 7 7 7 7 7 7 8 10 11 12 10 10 10 12 16 17 13 10 11 12 11 10 11 13 15 16 17
6 8 8 7 7 7 7 7 7 7 7 7 8 8 7 7 7 8 8 7 7 6 6 7 7 8 9 9 9 9 8 7 8 9 10 11 9 6 4 4 6 8 8 8 8 8 8 8 7 7 7 8 8 8 7 7 7 7 7 8 8 8 8 8 7 7 8 11 11 10 10 11 14 17 16 12 10 10 11 11 11 13 14 14 14
4 7 8 7 6 8 9 8 7 7 7 9 12 10 8 8 9 9 8 7 7 7 7 7 7 9 9 8 10 9 7 8 9 10 11 10 8 6 5 6 7 8 8 8 8 8 7 5 5 6 6 7 7 7 7 7 8 10 11 13 14 13 13 13 13 11 10 11 12 11 10 11 12 14 16 16 13 10 11 12 11 13 14 12 11
3 5 9 9 7 6 7 7 9 10 10 13 15 11 9 10 11 10 8 6 7 7 7 7 8 9 9 9 10 9 7 8 9 10 10 9 7 6 6 7 8 7 7 8 8 7 5 4 5 5 6 7 7 7 8 10 13 15 16 17 16 16 17 17 18 17 15 14 13 12 11 11 12 13 14 16 15 11 11 12 13 13 13 12 11
4 5 6 7 5 5 7 12 15 15 14 17 15 12 12 12 11 9 7 6 8 7 7 8 8 8 9 10 10 8 7 8 9 10 9 8 7 7 7 8 7 7 8 8 7 6 5 4 5 6 7 7 9 11 14 16 17 17 17 19 21 25 30 31 30 28 23 18 16 15 12 10 12 14 14 16 15 13 12 13 14 14 13 12 11
6 5 5 5 3 3 8 14 15 12 12 15 15 13 14 13 8 7 7 7 7 7 7 8 8 8 10 11 9 8 7 8 9 9 8 7 7 8 8 7 7 8 8 7 6 6 4 4 5 6 8 11 15 17 18 17 19 22 25 28 30 32 33 33 35 38 35 26 21 19 15 11 13 14 14 15 15 13 13 14 15 14 13 12 10
7 6 6 5 1 -1 3 10 16 16 13 14 16 14 11 9 6 6 8 8 7 7 8 8 8 9 11 10 9 7 8 9 8 8 8 7 8 8 7 7 8 7 7 6 6 5 4 5 6 8 14 18 18 17 19 23 28 32 32 29 24 20 19 19 23 32 39 35 27 22 17 12 12 14 13 13 14 13 12 13 14 14 12 11 11
8 7 6 3 1 1 2 9 19 21 14 12 15 13 8 6 6 7 8 8 8 8 8 8 9 10 11 10 8 7 8 8 8 8 8 8 8 7 7 7 7 6 6 6 5 5 5 5 9 15 19 18 15 19 26 31 32 28 23 17 11 8 10 12 10 18 33 38 31 26 21 15 12 13 12 12 15 15 13 12 12 12 11 11 11
9 10 7 4 4 1 4 16 23 20 15 13 12 9 7 6 6 7 8 8 8 9 9 9 9 11 11 9 7 7 7 7 8 8 8 7 7 6 6 7 7 6 6 6 5 5 6 8 14 19 17 13 17 26 31 28 23 19 15 15 17 19 23 26 21 18 26 34 33 31 25 17 13 12 12 11 14 16 14 11 11 11 10 10 11
12 12 9 11 7 -1 8 28 29 16 13 12 8 6 7 7 6 7 8 8 9 9 9 9 9 11 11 8 6 6 7 7 8 8 7 7 6 6 7 7 6 6 6 5 5 5 7 13 19 18 13 15 25 33 30 22 18 18 19 23 28 31 33 34 31 25 23 28 32 33 27 19 14 12 12 11 12 14 14 14 13 12 11 11 11
17 16 13 11 6 3 17 32 26 13 10 9 6 6 7 6 6 7 8 9 9 10 9 8 9 11 10 7 6 6 6 7 8 7 7 7 6 6 7 6 6 7 6 5 6 7 12 20 20 14 14 23 33 32 22 14 13 14 17 17 18 23 28 29 28 26 24 27 31 31 26 19 15 14 13 11 13 15 15 14 13 12 11 11 11
23 20 11 4 6 19 30 27 17 13 10 6 5 7 6 6 6 8 9 9 10 11 9 8 10 11 10 7 6 6 6 7 7 7 7 6 6 6 6 5 7 7 5 6 9 12 19 21 14 12 21 30 32 24 13 9 10 10 12 11 9 16 26 29 27 25 23 24 28 28 24 19 16 15 14 11 12 16 16 13 12 11 10 11 12
21 13 6 8 20 34 30 15 7 9 6 4 7 8 6 7 8 9 10 10 11 11 9 9 11 11 10 7 5 5 6 6 6 7 6 6 6 6 6 7 8 6 5 9 13 17 21 17 10 16 28 31 25 17 11 10 10 10 16 19 16 17 22 24 27 28 25 24 26 25 22 20 17 15 13 10 12 15 15 13 11 9 9 12 14
12 9 16 25 28 23 15 8 7 7 6 7 9 8 8 9 9 10 11 11 11 11 9 10 12 12 10 7 5 5 6 5 6 6 7 6 6 6 7 7 7 5 7 12 17 19 18 12 11 22 31 26 17 13 12 11 9 13 22 23 17 18 19 20 25 28 24 25 28 26 23 21 19 16 12 10 13 16 14 12 11 10 11 13 14
9 18 27 27 18 8 7 7 7 7 8 9 10 10 10 10 10 11 11 11 11 10 9 11 12 11 10 7 5 5 5 5 6 7 7 6 6 6 8 7 5 6 10 15 19 19 14 9 15 28 30 20 13 13 13 10 9 17 24 20 16 16 13 13 18 18 16 23 29 27 24 21 18 16 13 12 16 17 13 12 12 12 13 13 13
22 27 20 11 7 6 7 7 6 8 9 9 10 11 11 10 10 11 11 12 12 10 9 11 12 12 11 7 5 5 5 5 6 7 7 6 6 7 7 6 6 9 14 18 20 16 10 10 21 31 27 16 13 15 13 10 12 20 22 20 19 14 6 10 17 13 12 25 31 26 24 22 17 14 14 15 17 15 12 13 13 13 13 14 13
25 20 9 4 7 7 6 7 8 8 8 9 11 12 10 10 11 10 11 12 12 10 10 10 11 13 11 7 5 5 5 6 6 7 7 6 7 7 6 6 8 11 17 20 17 11 10 15 25 30 23 14 14 16 12 10 15 21 21 20 20 13 9 18 23 13 13 25 28 23 23 21 16 16 16 16 15 14 13 13 12 11 12 12 12
9 7 6 6 8 6 6 9 8 7 8 9 11 11 10 10 10 10 11 12 11 11 11 10 11 13 10 7 5 5 6 6 6 7 7 6 7 7 5 6 10 15 19 17 12 10 14 19 25 28 21 15 16 16 11 10 15 22 23 21 18 15 15 23 25 19 18 21 21 20 21 19 17 18 18 15 14 13 13 13 11 11 11 11 12
-0 6 6 5 4 3 6 8 7 8 8 8 10 11 10 9 10 10 11 12 11 11 10 10 12 13 9 6 6 5 6 7 6 7 7 6 7 6 6 9 15 18 18 13 10 14 18 20 25 27 21 16 16 13 8 8 13 20 24 23 19 18 19 20 20 19 19 19 17 17 17 16 17 18 15 15 15 14 13 13 11 10 11 11 12
2 7 4 3 3 2 5 7 7 8 9 8 11 12 9 9 10 10 11 13 12 11 10 10 13 13 9 7 6 6 6 7 7 7 6 6 7 6 7 13 17 16 12 11 13 18 18 19 26 28 20 16 15 10 6 8 11 16 22 24 22 21 19 18 17 16 17 17 16 15 15 15 17 17 16 16 16 14 13 13 11 11 12 12 12
3 5 2 4 4 2 5 6 6 10 12 10 11 11 8 9 10 10 12 14 13 10 9 10 13 13 10 7 6 6 6 7 7 7 7 7 7 6 10 16 17 13 11 13 17 19 18 21 28 26 18 16 13 8 7 10 10 13 18 22 22 19 17 17 19 18 17 17 16 15 16 17 17 18 18 18 18 17 15 14 14 15 15 14 14
4 4 3 5 5 4 3 3 7 14 15 13 12 10 8 8 10 11 13 14 13 10 9 10 12 12 10 8 6 6 7 8 7 7 8 8 7 8 14 17 15 13 13 16 20 20 19 23 30 24 16 14 13 9 10 12 10 11 14 17 18 17 15 16 18 18 17 18 19 20 20 19 20 21 22 21 20 19 18 16 16 16 16 16 17
7 5 4 6 6 5 2 3 11 18 17 14 12 9 8 9 10 12 15 14 11 9 8 10 12 12 10 8 7 6 7 7 7 7 8 7 7 11 16 15 12 13 16 17 21 22 19 23 30 25 14 11 12 11 12 13 11 10 12 14 15 16 15 16 17 17 17 17 19 21 22 20 21 23 25 26 25 23 21 19 17 17 19 19 19
7 5 6 6 5 4 2 5 15 19 17 13 11 8 8 10 11 13 15 13 10 8 9 10 12 13 11 8 6 7 8 7 7 8 8 6 9 14 16 13 11 14 17 18 22 23 20 21 28 27 19 12 10 10 12 13 11 9 9 11 13 15 16 15 14 14 16 15 15 18 19 17 16 16 18 21 23 24 25 24 22 21 22 21 21
7 7 8 6 5 5 4 9 17 18 13 11 9 7 8 10 12 15 15 11 10 9 9 10 12 13 11 8 7 7 8 7 8 9 7 6 12 16 15 12 11 13 15 18 22 24 21 19 23 26 25 20 15 12 12 14 14 11 8 8 10 12 15 16 15 13 14 14 12 12 13 14 15 14 13 14 16 19 20 20 20 21 21 20 20
9 10 9 7 7 6 6 12 17 13 9 9 8 7 9 10 12 15 14 11 11 10 8 10 13 13 11 9 7 8 8 7 8 9 6 7 14 17 14 11 10 11 14 19 22 23 22 20 19 20 22 23 21 19 17 17 17 14 10 8 9 10 11 14 15 15 14 13 12 11 11 11 13 13 13 12 13 16 19 20 19 19 18 18 20
9 10 8 7 7 5 8 14 15 9 8 9 7 7 9 11 13 15 14 12 12 10 8 11 14 13 11 9 7 7 8 7 8 8 7 9 16 18 13 10 10 10 12 19 23 23 21 20 20 19 20 21 22 21 21 21 20 18 16 16 16 13 9 9 12 14 14 14 13 13 12 13 13 14 13 10 10 14 18 19 16 14 15 13 11
9 9 8 7 6 5 9 13 12 9 8 8 6 7 10 11 14 15 14 13 12 10 9 11 13 13 11 9 8 8 8 7 8 8 7 11 18 17 12 9 10 10 12 18 23 24 22 20 20 20 21 21 21 21 21 22 23 24 24 25 24 20 14 10 11 13 13 12 11 10 10 10 11 12 13 11 10 12 14 14 12 12 14 14 10
7 7 8 8 6 6 9 12 12 10 8 7 7 8 10 12 15 15 13 13 13 11 9 11 13 13 12 9 8 8 7 7 9 8 7 13 20 17 10 9 9 8 11 16 20 24 24 22 19 18 19 20 20 21 21 22 22 23 24 26 26 25 22 18 16 15 14 13 12 11 10 10 10 10 10 11 11 11 12 13 14 13 11 11 12
0 2 5 7 6 6 8 11 11 9 7 7 8 9 10 13 15 13 13 14 13 10 9 10 12 14 12 9 9 9 7 8 10 7 7 15 20 15 9 9 8 6 8 12 15 19 23 23 21 19 18 18 18 19 19 20 20 20 21 21 21 22 22 22 21 20 20 19 19 19 19 19 18 17 16 15 14 13 12 11 11 10 8 7 6
3 2 4 6 6 7 8 10 10 8 7 7 9 10 11 13 13 13 14 14 13 10 9 10 12 15 13 10 9 9 7 8 10 7 7 17 21 14 7 7 6 5 5 7 9 13 17 20 21 21 19 18 18 17 17 17 16 16 16 17 17 17 17 17 18 18 19 19 20 20 20 21 21 22 22 22 22 21 20 19 17 14 12 13 12
7 9 10 9 6 7 9 9 8 7 6 8 9 10 11 13 13 13 14 14 13 10 9 10 13 15 12 10 10 8 6 8 10 7 8 18 21 13 6 5 4 3 4 4 4 6 9 12 15 17 18 19 20 19 17 16 15 13 12 12 12 12 13 13 14 14 15 15 15 15 15 16 16 17 18 19 20 22 23 25 25 24 21 19 18
6 11 15 11 6 7 10 9 8 7 7 8 9 10 11 13 13 13 15 15 12 9 8 10 14 15 12 10 10 8 6 9 10 6 8 19 21 12 5 4 3 2 3 3 2 3 4 5 7 10 12 14 17 18 19 19 19 17 17 16 15 14 13 13 13 13 13 14 14 14 14 14 14 14 14 15 15 16 17 18 20 22 23 23 23
4 11 19 15 7 7 10 10 7 7 8 8 9 10 12 12 12 14 15 14 11 9 9 11 14 15 12 10 10 7 6 10 11 6 8 18 21 12 5 3 2 1 3 4 3 4 4 4 4 4 5 7 9 11 13 16 17 18 19 20 20 19 18 17 16 16 15 15 16 15 16 16 15 15 15 15 14 14 15 15 15 15 15 16 17
-1 7 21 19 9 6 11 10 8 8 9 8 9 11 12 12 13 14 15 13 11 10 9 11 15 15 12 9 9 8 6 10 11 6 7 17 20 13 5 3 2 2 3 4 5 6 6 6 5 5 4 4 4 5 6 7 9 10 12 14 15 17 18 18 18 19 18 16 16 14 14 14 13 13 13 14 15 15 16 16 16 17 17 16 16
1 8 21 20 9 7 11 10 8 9 10 8 9 12 12 12 13 14 14 13 11 10 9 11 15 15 11 9 9 7 7 10 11 6 6 15 20 14 6 4 3 2 3 4 6 7 7 6 6 6 5 5 5 5 5 5 5 5 6 7 8 10 12 14 16 18 19 19 18 16 14 13 12 12 12 13 14 15 16 17 18 18 18 18 19
8 12 20 18 8 7 11 10 9 10 10 9 10 12 11 12 14 14 13 12 12 10 9 12 15 14 11 9 8 7 8 10 11 7 6 13 18 15 9 6 4 3 3 4 5 6 7 6 5 5 5 5 5 6 6 7 7 6 5 5 5 5 6 8 10 12 14 16 18 18 17 16 14 13 12 13 13 13 15 15 17 18 18 18 19
11 13 20 17 8 5 9 10 9 10 10 9 10 11 10 12 14 13 12 13 13 10 9 12 15 15 12 9 8 8 9 10 10 8 6 11 16 16 11 8 6 4 3 4 5 6 6 5 4 4 4 4 4 5 6 7 7 7 6 6 5 5 5 5 5 6 8 10 13 15 17 18 18 16 15 13 13 13 13 14 14 15 16 17 18
Height
5907 5906 5905 5904 5903 5901 5900 5899 5898 5897 5896 5895 5894 5893 5892 5891 5890 5890 5889 5888 5887 5886 5885 5884 5883 5882 5880 5879 5878 5877 5876 5875 5874 5872 5871 5870 5868 5866 5864 5863 5861 5859 5857 5856 5854 5852 5850 5848 5846 5844 5842 5840 5838 5837 5835 5833 5831 5829 5828 5826 5825 5824 5823 5822 5821 5819 5818 5817 5815 5814 5813 5811 5810 5808 5807 5806 5806 5806 5805 5804 5803 5803 5802 5802 5803
5907 5906 5905 5904 5903 5902 5901 5900 5898 5897 5896 5895 5894 5893 5892 5891 5890 5889 5888 5887 5886 5885 5884 5883 5881 5880 5879 5878 5877 5876 5875 5873 5872 5871 5869 5867 5866 5864 5862 5860 5858 5856 5855 5853 5851 5849 5847 5845 5843 5841 5839 5837 5835 5833 5831 5829 5827 5825 5823 5822 5820 5819 5818 5817 5816 5815 5813 5812 5810 5809 5808 5807 5805 5803 5802 5801 5800 5799 5799 5797 5797 5797 5796 5796 5796
5907 5906 5905 5904 5903 5902 5900 5899 5898 5897 5895 5894 5893 5892 5891 5891 5890 5889 5888 5886 5885 5884 5883 5881 5880 5879 5878 5877 5876 5874 5873 5872 5870 5868 5867 5865 5863 5862 5860 5858 5856 5854 5852 5850 5848 5846 5844 5842 5839 5837 5835 5833 5831 5828 5826 5825 5823 5821 5819 5818 5816 5815 5813 5812 5811 5810 5809 5807 5805 5804 5803 5802 5800 5798 5796 5795 5793 5793 5792 5791 5790 5790 5790 5789 5789
5906 5906 5905 5903 5902 5901 5900 5899 5897 5896 5895 5894 5893 5892 5892 5891 5890 5888 5887 5886 5885 5883 5882 5880 5879 5878 5877 5876 5874 5873 5871 5870 5868 5866 5865 5863 5861 5859 5857 5856 5854 5852 5849 5847 5845 5842 5840 5838 5836 5833 5831 5829 5827 5825 5823 5821 5819 5817 5815 5814 5812 5810 5808 5807 5806 5805 5804 5802 5800 5799 5797 5796 5795 5793 5791 5789 5787 5786 5785 5784 5783 5783 5782 5783 5783
5906 5905 5904 5903 5902 5900 5899 5898 5897 5896 5895 5894 5893 5892 5891 5890 5889 5888 5887 5886 5884 5883 5882 5880 5879 5877 5876 5875 5873 5872 5870 5868 5866 5864 5862 5861 5859 5857 5855 5853 5851 5848 5846 5844 5841 5839 5837 5834 5832 5830 5827 5825 5823 5821 5819 5817 5815 5813 5811 5809 5807 5805 5803 5802 5800 5799 5798 5797 5795 5793 5791 5790 5788 5786 5785 5783 5781 5780 5778 5777 5776 5775 5775 5776 5777
5905 5904 5903 5902 5901 5900 5899 5897 5896 5895 5894 5893 5892 5891 5890 5889 5888 5887 5886 5885 5884 5883 5882 5880 5879 5877 5875 5874 5872 5870 5868 5866 5864 5862 5860 5858 5856 5854 5852 5850 5848 5845 5843 5841 5838 5836 5833 5831 5828 5826 5824 5822 5820 5817 5815 5813 5811 5809 5806 5804 5802 5800 5798 5796 5795 5794 5792 5790 5789 5787 5785 5783 5781 5780 5778 5777 5776 5774 5773 5771 5770 5769 5768 5768 5769
5904 5903 5902 5901 5900 5899 5898 5897 5895 5894 5893 5892 5891 5890 5889 5888 5887 5887 5886 5885 5884 5882 5881 5879 5878 5876 5874 5873 5871 5869 5867 5865 5863 5860 5858 5856 5854 5852 5849 5847 5845 5843 5840 5838 5835 5833 5830 5827 5825 5822 5820 5818 5816 5814 5811 5809 5807 5804 5802 5799 5797 5795 5793 5791 5789 5788 5786 5784 5783 5781 5779 5777 5775 5774 5772 5771 5770 5769 5768 5766 5765 5764 5763 5762 5763
5904 5903 5901 5900 5900 5899 5898 5897 5896 5894 5893 5892 5891 5889 5888 5887 5887 5886 5885 5884 5883 5881 5880 5878 5877 5875 5873 5871 5869 5867 5865 5863 5860 5858 5856 5854 5851 5849 5847 5844 5842 5839 5837 5834 5832 5829 5827 5824 5821 5819 5816 5814 5812 5810 5807 5805 5802 5800 5798 5795 5792 5790 5788 5786 5784 5782 5780 5778 5777 5775 5773 5771 5769 5768 5767 5766 5765 5763 5762 5761 5760 5759 5758 5757 5757
5903 5902 5901 5900 5900 5899 5898 5897 5896 5894 5893 5892 5890 5889 5888 5887 5886 5885 5884 5883 5882 5880 5878 5877 5875 5873 5871 5869 5867 5865 5863 5860 5858 5856 5854 5851 5849 5846 5844 5841 5838 5836 5834 5831 5829 5826 5823 5820 5818 5815 5813 5811 5808 5806 5804 5801 5798 5796 5793 5791 5788 5785 5783 5781 5778 5776 5774 5772 5771 5769 5767 5765 5763 5762 5761 5760 5759 5758 5757 5756 5755 5754 5753 5753 5752
5902 5902 5901 5901 5900 5899 5898 5897 5895 5894 5892 5891 5890 5888 5887 5886 5885 5884 5883 5881 5880 5878 5877 5875 5873 5871 5869 5867 5865 5863 5860 5858 5856 5853 5851 5848 5846 5843 5841 5838 5836 5834 5831 5828 5826 5823 5820 5818 5815 5813 5810 5808 5805 5803 5800 5797 5794 5792 5789 5786 5783 5781 5778 5775 5773 5771 5769 5767 5765 5763 5761 5759 5758 5757 5756 5755 5754 5753 5752 5751 5750 5750 5749 5749 5748
5902 5902 5901 5900 5900 5898 5897 5896 5895 5893 5891 5890 5888 5887 5886 5884 5883 5882 5881 5879 5878 5876 5874 5873 5871 5869 5867 5865 5863 5860 5858 5856 5853 5851 5848 5846 5843 5841 5839 5836 5834 5831 5829 5826 5823 5821 5818 5815 5812 5809 5807 5804 5802 5799 5796 5793 5790 5787 5784 5781 5778 5776 5773 5771 5768 5766 5764 5761 5759 5757 5755 5754 5752 5751 5750 5750 5749 5748 5747 5746 5746 5745 5744 5744 5744
5901 5901 5900 5899 5898 5897 5896 5895 5893 5891 5890 5888 5887 5885 5884 5883 5881 5880 5879 5877 5876 5874 5872 5870 5868 5867 5865 5862 5860 5858 5855 5853 5851 5849 5846 5844 5841 5839 5837 5835 5832 5829 5826 5824 5821 5818 5815 5812 5809 5806 5803 5800 5797 5794 5791 5788 5785 5782 5779 5776 5773 5770 5767 5765 5763 5761 5759 5757 5754 5752 5750 5748 5747 5746 5745 5744 5744 5743 5743 5742 5741 5740 5740 5740 5739
5900 5899 5899 5898 5897 5896 5894 5893 5891 5890 5888 5886 5885 5883 5882 5881 5879 5878 5877 5875 5873 5872 5870 5868 5866 5864 5862 5860 5857 5855 5853 5851 5849 5847 5844 5842 5840 5837 5835 5833 5830 5827 5824 5821 5818 5815 5811 5808 5806 5803 5800 5796 5793 5790 5786 5783 5779 5776 5773 5770 5767 5764 5761 5758 5756 5755 5753 5752 5749 5747 5745 5743 5742 5741 5740 5740 5739 5739 5738 5738 5737 5737 5736 5736 5735
5899 5898 5897 5896 5895 5894 5892 5891 5889 5888 5886 5884 5883 5882 5880 5879 5877 5876 5875 5873 5871 5870 5868 5866 5864 5862 5859 5857 5855 5853 5851 5850 5847 5845 5843 5840 5838 5836 5833 5831 5828 5825 5821 5818 5815 5811 5808 5805 5802 5799 5796 5793 5789 5785 5782 5778 5774 5770 5767 5764 5761 5757 5754 5751 5749 5747 5746 5745 5744 5742 5740 5738 5737 5736 5735 5735 5735 5734 5734 5734 5733 5733 5733 5732 5732
5899 5898 5897 5895 5894 5892 5890 5889 5887 5886 5884 5883 5881 5880 5878 5877 5875 5874 5873 5871 5869 5868 5866 5864 5862 5860 5858 5856 5854 5852 5850 5848 5846 5843 5841 5839 5836 5834 5831 5829 5825 5822 5819 5815 5812 5809 5805 5802 5799 5796 5792 5789 5785 5781 5777 5773 5769 5764 5761 5757 5754 5750 5747 5744 5742 5740 5739 5738 5738 5737 5735 5734 5732 5731 5730 5730 5730 5730 5729 5729 5729 5729 5729 5728 5728
5897 5897 5895 5894 5892 5890 5889 5887 5886 5884 5883 5881 5880 5878 5877 5875 5873 5872 5870 5869 5867 5866 5864 5862 5860 5858 5856 5854 5852 5850 5849 5846 5844 5842 5839 5837 5835 5832 5829 5826 5823 5819 5816 5813 5809 5806 5803 5799 5795 5792 5788 5785 5780 5776 5772 5767 5762 5758 5754 5750 5746 5743 5739 5736 5734 5732 5731 5730 5730 5730 5730 5728 5727 5726 5725 5725 5726 5725 5725 5725 5725 5725 5725 5725 5725
5895 5895 5894 5892 5891 5889 5887 5886 5885 5883 5882 5880 5879 5877 5875 5873 5871 5870 5868 5867 5865 5864 5862 5860 5858 5856 5855 5853 5851 5849 5847 5845 5842 5840 5838 5835 5833 5830 5827 5824 5820 5817 5813 5810 5807 5803 5799 5795 5791 5787 5783 5779 5775 5770 5765 5760 5755 5751 5746 5742 5738 5734 5731 5728 5725 5724 5723 5722 5723 5723 5723 5723 5722 5722 5721 5721 5721 5721 5721 5721 5722 5721 5721 5722 5722
5893 5892 5891 5890 5889 5888 5887 5886 5884 5882 5881 5879 5878 5876 5874 5872 5870 5868 5867 5865 5863 5862 5860 5858 5856 5855 5853 5851 5849 5847 5845 5843 5841 5838 5836 5834 5831 5828 5825 5821 5818 5814 5811 5807 5803 5800 5796 5792 5787 5783 5778 5774 5769 5764 5759 5753 5748 5743 5738 5734 5729 5726 5722 5719 5716 5715 5714 5714 5714 5716 5717 5717 5717 5717 5717 5716 5716 5717 5717 5718 5718 5718 5718 5719 5719
5891 5890 5889 5888 5888 5887 5885 5884 5882 5880 5878 5877 5876 5875 5873 5871 5869 5867 5865 5863 5862 5860 5858 5856 5855 5853 5851 5849 5848 5846 5844 5842 5839 5837 5834 5832 5829 5826 5822 5819 5816 5812 5808 5804 5800 5796 5792 5788 5783 5779 5774 5768 5763 5757 5752 5747 5741 5736 5731 5726 5722 5718 5715 5712 5709 5707 5706 5705 5706 5708 5710 5712 5712 5712 5712 5712 5712 5713 5713 5714 5715 5715 5715 5715 5716
5889 5888 5887 5887 5886 5884 5883 5881 5880 5878 5877 5876 5875 5874 5872 5870 5868 5865 5864 5862 5860 5858 5856 5855 5853 5851 5850 5848 5846 5844 5842 5840 5838 5835 5833 5830 5827 5824 5820 5817 5813 5809 5805 5801 5797 5793 5789 5784 5779 5773 5768 5762 5757 5751 5746 5740 5735 5730 5725 5721 5717 5714 5710 5707 5704 5702 5699 5698 5699 5701 5703 5706 5707 5707 5708 5708 5708 5709 5710 5711 5712 5712 5712 5712 5713
5886 5885 5885 5884 5883 5881 5880 5880 5878 5877 5876 5875 5873 5872 5871 5869 5867 5864 5863 5861 5859 5857 5855 5853 5852 5850 5848 5846 5844 5842 5841 5839 5836 5834 5831 5828 5825 5822 5818 5815 5811 5807 5803 5798 5794 5790 5785 5780 5774 5769 5763 5757 5751 5745 5740 5734 5730 5725 5721 5717 5713 5710 5706 5703 5700 5697 5695 5693 5693 5694 5697 5700 5701 5703 5704 5704 5705 5705 5706 5707 5708 5708 5709 5709 5710
5883 5882 5881 5881 5880 5879 5878 5877 5876 5875 5875 5874 5872 5871 5869 5867 5865 5863 5862 5860 5858 5855 5853 5852 5850 5848 5846 5844 5843 5841 5839 5837 5835 5832 5829 5826 5823 5820 5816 5813 5809 5804 5800 5796 5792 5787 5782 5776 5770 5764 5758 5752 5746 5740 5735 5730 5726 5722 5718 5714 5709 5705 5701 5698 5695 5693 5691 5689 5689 5689 5692 5694 5696 5698 5700 5701 5702 5702 5703 5704 5705 5706 5706 5706 5707
5880 5879 5878 5879 5879 5877 5875 5873 5873 5873 5873 5872 5871 5870 5868 5866 5864 5862 5860 5858 5856 5854 5852 5851 5849 5847 5845 5843 5841 5839 5838 5836 5833 5830 5827 5825 5821 5818 5815 5811 5806 5802 5798 5793 5789 5783 5778 5772 5766 5760 5754 5749 5743 5737 5732 5728 5724 5719 5715 5710 5705 5701 5697 5694 5691 5689 5687 5686 5686 5686 5688 5690 5692 5694 5696 5697 5698 5699 5700 5701 5702 5703 5703 5704 5704
5876 5876 5877 5877 5876 5875 5873 5872 5871 5871 5870 5870 5869 5868 5866 5864 5862 5861 5859 5857 5855 5853 5851 5850 5848 5845 5843 5842 5840 5838 5836 5834 5832 5829 5826 5823 5820 5816 5813 5808 5804 5799 5795 5790 5785 5779 5774 5768 5762 5757 5751 5745 5740 5735 5731 5726 5722 5718 5713 5708 5704 5699 5695 5692 5689 5687 5685 5684 5684 5684 5685 5686 5689 5691 5693 5694 5695 5696 5697 5698 5699 5700 5701 5702 5702
5874 5875 5875 5874 5874 5873 5871 5871 5870 5869 5868 5868 5867 5866 5864 5862 5861 5860 5858 5856 5854 5852 5850 5848 5846 5844 5842 5841 5839 5837 5835 5833 5830 5827 5825 5822 5818 5814 5810 5806 5801 5797 5792 5787 5781 5776 5771 5766 5760 5754 5749 5743 5737 5733 5730 5725 5721 5717 5712 5708 5704 5699 5695 5691 5688 5686 5684 5683 5683 5683 5683 5684 5686 5688 5690 5692 5693 5693 5694 5695 5696 5697 5698 5699 5700
5873 5873 5873 5872 5871 5870 5869 5869 5869 5868 5867 5866 5865 5864 5862 5861 5859 5858 5857 5855 5853 5851 5849 5848 5846 5843 5841 5840 5837 5836 5834 5831 5829 5826 5823 5820 5816 5812 5808 5803 5799 5794 5789 5784 5779 5774 5769 5764 5758 5752 5746 5740 5736 5732 5728 5724 5720 5716 5712 5708 5703 5699 5695 5691 5688 5686 5684 5683 5682 5682 5682 5683 5684 5686 5688 5689 5690 5691 5692 5693 5694 5695 5695 5697 5698
5871 5872 5871 5870 5869 5868 5868 5868 5868 5867 5866 5865 5864 5862 5861 5859 5858 5857 5856 5854 5851 5850 5848 5847 5845 5842 5840 5838 5836 5834 5832 5830 5827 5825 5821 5818 5814 5810 5806 5802 5797 5793 5788 5783 5777 5772 5767 5761 5755 5749 5743 5739 5735 5731 5727 5723 5719 5715 5711 5707 5703 5699 5695 5692 5689 5686 5684 5683 5682 5681 5681 5682 5683 5685 5686 5688 5689 5689 5690 5691 5692 5693 5693 5694 5695
5869 5869 5869 5868 5868 5867 5867 5867 5867 5866 5865 5864 5862 5861 5859 5858 5857 5856 5854 5852 5850 5849 5848 5846 5844 5841 5839 5837 5835 5833 5831 5829 5826 5823 5820 5816 5812 5808 5804 5800 5796 5791 5786 5781 5776 5770 5764 5758 5752 5747 5742 5738 5734 5730 5726 5722 5718 5714 5710 5707 5703 5700 5697 5693 5690 5688 5685 5683 5682 5681 5681 5682 5683 5684 5686 5687 5688 5688 5689 5690 5691 5691 5692 5693 5694
5867 5867 5868 5867 5867 5866 5866 5866 5865 5865 5864 5863 5861 5860 5858 5856 5855 5854 5852 5850 5849 5848 5847 5845 5843 5841 5839 5836 5834 5832 5830 5828 5825 5822 5818 5815 5811 5807 5803 5799 5795 5789 5784 5779 5773 5767 5761 5755 5750 5745 5741 5737 5733 5729 5726 5722 5718 5714 5710 5707 5704 5701 5698 5695 5692 5689 5686 5684 5683 5682 5682 5682 5683 5684 5685 5686 5687 5688 5689 5689 5690 5690 5691 5691 5693
5866 5866 5867 5867 5867 5866 5865 5865 5864 5863 5862 5861 5860 5858 5856 5855 5854 5852 5850 5849 5849 5848 5846 5844 5842 5840 5838 5835 5833 5832 5830 5827 5824 5821 5817 5814 5810 5806 5802 5798 5793 5788 5782 5776 5770 5764 5759 5754 5749 5744 5740 5737 5733 5729 5726 5722 5718 5714 5710 5707 5704 5701 5698 5696 5693 5690 5687 5685 5684 5683 5683 5683 5683 5684 5685 5686 5686 5687 5688 5689 5689 5689 5690 5690 5692
5865 5865 5866 5867 5866 5866 5865 5864 5863 5862 5861 5860 5859 5857 5855 5854 5852 5850 5849 5849 5848 5847 5845 5843 5841 5839 5837 5835 5833 5831 5829 5826 5823 5820 5816 5813 5810 5806 5801 5796 5791 5786 5780 5774 5768 5763 5758 5753 5748 5744 5740 5737 5733 5730 5726 5723 5719 5715 5711 5708 5705 5702 5699 5697 5694 5692 5689 5687 5686 5685 5684 5684 5684 5684 5685 5686 5686 5687 5688 5688 5688 5688 5689 5690 5691
5864 5865 5866 5866 5866 5865 5864 5863 5862 5861 5860 5859 5857 5856 5854 5852 5851 5849 5848 5848 5847 5846 5844 5842 5840 5838 5836 5834 5833 5830 5828 5825 5822 5819 5816 5813 5809 5804 5799 5794 5789 5784 5778 5773 5768 5762 5757 5752 5748 5744 5740 5737 5734 5730 5727 5724 5720 5716 5712 5709 5706 5703 5701 5698 5695 5693 5691 5689 5687 5686 5686 5685 5685 5685 5685 5686 5686 5687 5687 5688 5688 5688 5688 5689 5690
5864 5865 5865 5865 5864 5864 5863 5862 5861 5860 5859 5858 5856 5855 5853 5851 5849 5848 5848 5847 5847 5845 5843 5841 5839 5837 5835 5834 5832 5830 5827 5825 5822 5819 5816 5812 5808 5803 5798 5793 5788 5783 5778 5773 5767 5762 5757 5752 5748 5744 5740 5737 5734 5731 5728 5725 5721 5717 5713 5710 5708 5705 5703 5700 5697 5695 5693 5691 5689 5688 5687 5687 5686 5686 5686 5686 5686 5687 5687 5687 5687 5687 5688 5688 5689
5864 5864 5864 5864 5863 5863 5863 5862 5861 5859 5858 5856 5855 5854 5852 5850 5848 5847 5847 5847 5846 5844 5842 5840 5838 5837 5835 5833 5831 5829 5827 5824 5822 5819 5816 5812 5807 5802 5798 5793 5788 5783 5777 5772 5767 5762 5757 5752 5748 5744 5741 5738 5735 5732 5729 5726 5722 5719 5715 5712 5709 5707 5704 5702 5699 5697 5695 5693 5692 5690 5689 5688 5688 5687 5687 5687 5686 5686 5687 5687 5687 5687 5687 5688 5688
5864 5863 5863 5863 5862 5862 5862 5861 5860 5858 5857 5855 5854 5853 5851 5849 5847 5847 5846 5846 5844 5843 5841 5840 5838 5836 5834 5833 5831 5829 5826 5824 5822 5819 5815 5811 5806 5802 5797 5793 5788 5782 5777 5772 5767 5762 5757 5752 5748 5745 5742 5739 5736 5733 5730 5727 5724 5721 5718 5715 5712 5709 5707 5704 5702 5699 5697 5696 5694 5693 5691 5690 5689 5688 5688 5687 5687 5687 5687 5687 5687 5687 5687 5687 5688
5863 5862 5862 5862 5861 5861 5861 5860 5859 5857 5856 5854 5853 5852 5850 5848 5847 5846 5845 5844 5843 5842 5840 5839 5837 5835 5834 5832 5830 5828 5826 5824 5822 5819 5815 5811 5807 5802 5797 5793 5788 5783 5778 5772 5767 5762 5758 5753 5749 5746 5743 5740 5737 5734 5731 5729 5726 5723 5721 5718 5715 5712 5710 5707 5704 5702 5700 5699 5697 5695 5694 5692 5691 5690 5689 5688 5688 5687 5687 5687 5687 5687 5687 5687 5688
5862 5861 5861 5861 5860 5860 5859 5859 5857 5856 5855 5853 5852 5851 5849 5847 5846 5845 5844 5843 5842 5841 5839 5838 5836 5835 5834 5832 5830 5828 5826 5824 5822 5818 5815 5811 5807 5803 5798 5793 5788 5783 5779 5773 5768 5764 5759 5754 5750 5747 5744 5741 5739 5736 5733 5731 5728 5726 5723 5721 5718 5715 5713 5710 5708 5705 5703 5701 5700 5698 5697 5695 5694 5693 5692 5691 5690 5689 5689 5688 5688 5688 5688 5688 5688
5861 5860 5860 5859 5859 5859 5858 5857 5856 5854 5853 5852 5851 5849 5847 5846 5845 5844 5843 5842 5841 5840 5838 5837 5836 5835 5833 5832 5830 5828 5827 5824 5822 5819 5815 5811 5808 5803 5799 5794 5789 5785 5780 5775 5770 5765 5760 5756 5752 5748 5745 5742 5740 5737 5735 5732 5730 5728 5726 5723 5721 5718 5716 5713 5711 5708 5706 5704 5703 5701 5700 5698 5697 5695 5694 5693 5693 5692 5691 5691 5690 5690 5690 5690 5690
5860 5859 5859 5858 5858 5857 5856 5855 5854 5853 5852 5851 5849 5848 5846 5845 5844 5843 5842 5841 5840 5839 5838 5837 5836 5835 5833 5832 5830 5829 5827 5824 5822 5819 5816 5812 5808 5804 5800 5795 5791 5787 5782 5777 5772 5767 5762 5758 5754 5750 5747 5744 5741 5739 5737 5734 5732 5730 5728 5726 5723 5721 5718 5716 5713 5711 5709 5707 5706 5704 5703 5701 5700 5698 5697 5696 5696 5695 5694 5694 5693 5693 5692 5692 5692
5859 5858 5857 5857 5856 5856 5855 5853 5852 5851 5850 5849 5848 5846 5845 5844 5843 5842 5841 5841 5840 5839 5838 5837 5836 5834 5833 5832 5830 5829 5827 5824 5822 5819 5816 5812 5809 5806 5801 5797 5794 5789 5784 5779 5774 5769 5764 5760 5756 5752 5749 5746 5743 5741 5738 5736 5734 5732 5730 5727 5725 5723 5721 5719 5716 5714 5713 5711 5709 5707 5706 5705 5703 5702 5701 5700 5699 5698 5697 5696 5696 5696 5695 5695 5695
5858 5857 5856 5856 5855 5854 5853 5852 5851 5850 5849 5848 5846 5845 5844 5843 5842 5841 5841 5840 5839 5838 5837 5837 5836 5834 5833 5832 5830 5829 5827 5824 5822 5820 5816 5814 5811 5807 5803 5800 5796 5792 5787 5782 5777 5772 5767 5763 5759 5755 5752 5749 5746 5743 5741 5738 5736 5734 5732 5729 5727 5725 5723 5721 5720 5718 5716 5714 5713 5711 5709 5708 5707 5705 5704 5703 5702 5701 5700 5699 5699 5698 5698 5698 5697
5857 5857 5856 5855 5854 5853 5852 5851 5850 5849 5848 5847 5845 5844 5843 5843 5842 5841 5840 5840 5839 5838 5837 5836 5835 5834 5833 5831 5830 5828 5827 5825 5823 5820 5817 5815 5812 5809 5805 5802 5799 5795 5791 5786 5781 5776 5771 5767 5763 5759 5756 5753 5750 5747 5745 5742 5740 5737 5735 5732 5730 5728 5726 5724 5723 5721 5719 5718 5716 5714 5713 5711 5710 5709 5707 5706 5705 5704 5703 5702 5702 5701 5700 5700 5700
5856 5856 5855 5854 5853 5852 5851 5850 5849 5848 5847 5845 5844 5844 5843 5842 5841 5840 5839 5839 5838 5838 5837 5836 5835 5834 5833 5831 5830 5828 5826 5825 5823 5821 5818 5816 5814 5810 5807 5805 5802 5799 5795 5791 5786 5781 5776 5772 5768 5764 5761 5758 5755 5752 5750 5747 5744 5742 5739 5736 5734 5732 5730 5728 5726 5725 5723 5721 5719 5718 5716 5714 5713 5711 5710 5709 5708 5707 5706 5705 5704 5704 5703 5703 5703
5854 5854 5853 5852 5851 5850 5849 5849 5848 5847 5845 5844 5844 5843 5842 5841 5840 5839 5838 5838 5837 5837 5836 5835 5835 5834 5832 5831 5830 5828 5827 5825 5823 5822 5819 5817 5815 5812 5809 5807 5805 5802 5799 5795 5790 5786 5782 5777 5773 5769 5766 5763 5761 5758 5755 5752 5749 5746 5744 5741 5739 5736 5734 5732 5731 5729 5727 5725 5723 5721 5720 5718 5716 5715 5713 5712 5711 5709 5708 5708 5707 5706 5706 5705 5704
5852 5852 5851 5850 5849 5849 5848 5848 5847 5845 5844 5844 5843 5842 5841 5840 5839 5838 5837 5837 5837 5836 5836 5835 5834 5833 5832 5831 5829 5828 5827 5825 5824 5822 5820 5819 5817 5814 5811 5809 5807 5805 5802 5799 5795 5791 5787 5783 5779 5775 5772 5769 5766 5763 5760 5757 5754 5751 5749 5746 5744 5742 5740 5738 5736 5734 5732 5730 5728 5726 5724 5722 5720 5719 5717 5716 5714 5712 5711 5710 5709 5708 5707 5707 5706
5849 5849 5849 5849 5848 5847 5847 5846 5845 5844 5843 5843 5842 5841 5840 5839 5838 5837 5836 5836 5836 5835 5835 5834 5834 5832 5831 5830 5829 5828 5827 5826 5825 5823 5821 5820 5818 5816 5813 5811 5810 5808 5806 5803 5799 5796 5793 5789 5785 5781 5778 5775 5772 5769 5766 5763 5760 5757 5754 5752 5750 5747 5745 5742 5740 5738 5736 5734 5732 5730 5728 5726 5725 5723 5721 5719 5718 5716 5715 5714 5712 5711 5710 5709 5708
5846 5847 5847 5847 5846 5846 5845 5845 5844 5843 5842 5842 5841 5840 5839 5837 5836 5836 5835 5835 5835 5835 5834 5834 5833 5832 5831 5830 5829 5828 5827 5826 5825 5824 5822 5821 5819 5817 5815 5814 5812 5811 5809 5806 5803 5800 5797 5794 5791 5787 5784 5781 5779 5776 5773 5770 5766 5763 5760 5758 5755 5752 5749 5747 5745 5743 5740 5738 5736 5735 5733 5731 5729 5728 5726 5724 5722 5721 5719 5718 5716 5715 5714 5712 5711
5843 5844 5844 5844 5844 5844 5844 5843 5842 5842 5841 5840 5839 5838 5837 5836 5835 5835 5834 5834 5834 5834 5834 5833 5832 5831 5830 5830 5829 5828 5827 5826 5825 5824 5823 5821 5820 5819 5817 5816 5814 5813 5811 5809 5807 5804 5801 5798 5795 5792 5789 5787 5785 5782 5779 5776 5773 5770 5767 5764 5761 5758 5754 5752 5750 5748 5746 5743 5741 5739 5738 5736 5734 5732 5730 5729 5727 5725 5724 5722 5720 5719 5717 5716 5715
5840 5841 5841 5841 5842 5842 5842 5841 5841 5840 5840 5839 5838 5837 5836 5835 5834 5834 5833 5833 5833 5833 5833 5832 5831 5830 5830 5829 5829 5828 5827 5827 5826 5825 5824 5822 5821 5820 5819 5817 5816 5815 5814 5812 5810 5807 5805 5802 5800 5797 5794 5792 5790 5788 5785 5783 5780 5777 5774 5770 5767 5764 5760 5758 5756 5754 5751 5749 5746 5744 5742 5740 5739 5737 5735 5733 5732 5730 5728 5727 5725 5723 5722 5720 5718
5837 5838 5838 5839 5839 5840 5840 5839 5839 5839 5838 5837 5837 5836 5835 5834 5833 5832 5832 5832 5832 5832 5832 5831 5830 5830 5829 5829 5829 5828 5827 5827 5826 5825 5824 5823 5822 5821 5820 5819 5818 5817 5816 5814 5812 5810 5808 5806 5804 5801 5799 5797 5794 5793 5791 5788 5786 5783 5780 5777 5773 5770 5767 5764 5762 5760 5757 5754 5752 5750 5747 5745 5744 5742 5740 5738 5737 5735 5733 5732 5730 5728 5726 5724 5722
5834 5835 5835 5836 5836 5837 5838 5838 5838 5837 5837 5836 5835 5835 5834 5833 5832 5831 5831 5832 5831 5831 5831 5830 5829 5829 5829 5829 5828 5828 5827 5827 5826 5826 5825 5824 5823 5822 5821 5820 5819 5818 5817 5816 5815 5813 5811 5809 5807 5805 5803 5801 5799 5797 5795 5794 5791 5789 5786 5782 5779 5776 5773 5771 5768 5766 5763 5761 5758 5756 5753 5751 5749 5747 5746 5744 5742 5740 5739 5737 5735 5733 5731 5729 5727